NOAA 16 DEB, 41084

Orbit data source: Space-Track

NOAA 16 DEB, 41084 is space debris in SSO originally from a launch on Thu, 21 Sep 2000 UTC launched from the Air Force Western Test Range (AFWTR). Debris objects in space refer to the collection of defunct objects orbiting the Earth. Examples of debris include non-operational satellites, rocket bodies, and fragments generated from explosions, collisions, or faulty payload assembly.

Loading next visibility...
Identifier
41084, 2000-055AT
Orbit
SSO
Country
Flag of USUS
Related business
Manufacturer
Unknown
Mission
Spacecraft
Bus & Motor
Unknown
Mass
Unknown
Launch date (UTC)
2000-09-21 (25 years ago)
Launch vehicle
Unknown
Launch site
Air Force Western Test Range (AFWTR)
Object type
Payload
Rocket body
Debris
Shape & HBR
Unknown shape, 0.1 m
Radar Cross Section
Small (<0.1 m²)

Expand to show TLE details & history
Last TLE update: 12 hours ago

TLE from 12 hours ago
0 NOAA 16 DEB
1 41084U 00055AT  25351.45498229  .00001262  00000-0  57766-3 0  9991
2 41084  98.7035  75.1758 0015628  32.1825 328.0304 14.23131031520317
Epoch: 2025-12-17T10:55Z
TLE epoch observation values (Epoch: 2025-12-17T10:55:10.469Z)
Latitude
-0.00004°
Longitude
-174.94242°
Altitude
808.169 km
Speed
7.454 km/s
True Right ascension
05h 00m 42s
True Declination
0° 00' 00"
Sunlit
Object was in full shadow at epoch
Visualization orbit readout
Latitude
Unknown
Longitude
Unknown
Altitude
Unknown
Speed
Unknown
Apparent Right ascension
Unknown
Apparent Declination
Unknown
Sunlit
N/A
Visualization observer readout
Local Sidereal Time
21:36:04
Azimuth
Unknown
Elevation
Unknown
Doppler factor
Unknown
Orbital elements
Apogee altitude
823.174 km
Perigee altitude
800.701 km
Semi-major axis
7,190.074 km
Eccentricity
0.00156
Inclination
98.7035°
RAAN
75.1758°
Arg. of periapsis
32.1825°
True anomaly
327.93542°
Mean anomaly
328.0304°
Eccentric anomaly
327.98293°
Mean motion
3.55994 °/min
Orbital period
101.13 mins
BSTAR
0.00057766
Loading maneuver chart data...
Computing Atmospheric mass density...
Loading historical data...
Loading historical data...
Loading historical data...
Loading historical data...
Loading historical data...
Loading historical data...
Loading historical data...

Documentation

Showing up to 5 results
|